AUA7381 EHAM-LZIB

Flight info

Callsign AUA7381
Flight time N/A
Altitude 37000
Route EDUPO Z739 MISGO DCT GMH DCT PILAM DCT OKG DCT ODNEM/N0364F130 A4 BERVA
Aircraft A320/M-SDE3FGHIRWY/LB1

Departure

Time N/A
Airport Amsterdam Airport Schiphol (EHAM)

Arrival

Time 2026-04-30 20:29
Airport M. R. Štefánik Airport (LZIB)
Time Latitude Longitude Altitude Speed Heading
2026-04-30 19:58 51.31521 7.26960 32929 ft 442 kts 108°
2026-04-30 19:58 51.27285 7.45374 34097 ft 439 kts 108°
2026-04-30 19:59 51.23061 7.63603 35131 ft 437 kts 108°
2026-04-30 19:59 51.18818 7.81745 36015 ft 436 kts 108°
2026-04-30 19:59 51.15570 7.95373 36628 ft 435 kts 109°
2026-04-30 20:00 51.14465 7.99857 36836 ft 435 kts 109°
2026-04-30 20:00 51.13353 8.04325 37027 ft 434 kts 109°
2026-04-30 20:00 51.12241 8.08790 37226 ft 434 kts 109°
2026-04-30 20:00 51.11134 8.13249 37399 ft 433 kts 109°
2026-04-30 20:01 51.08817 8.22571 37777 ft 433 kts 109°
2026-04-30 20:01 51.06598 8.31458 38125 ft 432 kts 109°
2026-04-30 20:01 51.04379 8.40323 38410 ft 433 kts 109°
2026-04-30 20:02 50.97684 8.67019 38402 ft 433 kts 107°
2026-04-30 20:03 50.91672 8.93965 38412 ft 432 kts 106°
2026-04-30 20:03 50.87586 9.11884 38410 ft 432 kts 107°
2026-04-30 20:04 50.83470 9.29787 38420 ft 433 kts 107°
2026-04-30 20:05 50.77275 9.56510 38440 ft 433 kts 106°
2026-04-30 20:05 50.70970 9.83374 38441 ft 433 kts 106°
2026-04-30 20:06 50.66748 10.01164 38453 ft 433 kts 106°
2026-04-30 20:06 50.62495 10.18908 38448 ft 433 kts 106°
2026-04-30 20:07 50.58245 10.36581 37429 ft 428 kts 106°
2026-04-30 20:08 50.51793 10.63059 37429 ft 435 kts 106°
2026-04-30 20:08 50.47426 10.80765 37432 ft 434 kts 106°
2026-04-30 20:09 50.43060 10.98414 37419 ft 434 kts 106°
2026-04-30 20:09 50.36432 11.24869 37460 ft 435 kts 105°
2026-04-30 20:10 50.28932 11.54412 37454 ft 435 kts 106°
2026-04-30 20:11 50.15376 12.06906 37472 ft 434 kts 105°
2026-04-30 20:11 50.13445 12.14268 37467 ft 435 kts 105°
2026-04-30 20:12 50.06202 12.41766 37493 ft 435 kts 105°
2026-04-30 20:13 49.99462 12.71389 37463 ft 433 kts 103°
2026-04-30 20:13 49.91245 13.06486 37241 ft 435 kts 103°
2026-04-30 20:14 49.82988 13.41321 37352 ft 427 kts 103°
2026-04-30 20:14 49.78821 13.58668 37526 ft 426 kts 103°
2026-04-30 20:14 49.74626 13.75992 37568 ft 429 kts 103°
2026-04-30 20:14 49.70397 13.93342 37464 ft 433 kts 103°
2026-04-30 20:15 49.66136 14.10687 37352 ft 436 kts 103°
2026-04-30 20:15 49.61854 14.27993 37224 ft 433 kts 103°
2026-04-30 20:15 49.57513 14.45425 37319 ft 427 kts 103°
2026-04-30 20:15 49.53195 14.62548 37430 ft 424 kts 103°
2026-04-30 20:16 49.48864 14.79608 37545 ft 425 kts 103°
2026-04-30 20:16 49.40132 15.13732 37378 ft 433 kts 103°
2026-04-30 20:16 49.35713 15.30773 37256 ft 434 kts 103°
2026-04-30 20:17 49.31258 15.47824 37278 ft 429 kts 104°
2026-04-30 20:17 49.26806 15.64790 37396 ft 426 kts 104°
2026-04-30 20:17 49.22305 15.81742 37530 ft 428 kts 104°
2026-04-30 20:18 49.13202 16.15687 37407 ft 436 kts 105°
2026-04-30 20:18 49.08603 16.32704 37274 ft 438 kts 105°
2026-04-30 20:18 49.03971 16.49684 37096 ft 437 kts 105°
2026-04-30 20:18 48.99245 16.66811 34609 ft 450 kts 104°
2026-04-30 20:19 48.94563 16.83648 30589 ft 411 kts 103°
2026-04-30 20:19 48.90375 16.98742 27003 ft 395 kts 104°
2026-04-30 20:19 48.85927 17.14423 22609 ft 405 kts 111°
2026-04-30 20:19 48.78506 17.27548 19566 ft 427 kts 127°
2026-04-30 20:20 48.70638 17.40073 16359 ft 393 kts 128°
2026-04-30 20:20 48.63222 17.51798 13514 ft 390 kts 129°
2026-04-30 20:20 48.55210 17.63054 12736 ft 421 kts 147°
2026-04-30 20:20 48.44796 17.68789 11335 ft 381 kts 157°
2026-04-30 20:21 48.35704 17.73660 10305 ft 309 kts 158°
2026-04-30 20:21 48.27864 17.76977 9663 ft 303 kts 184°
2026-04-30 20:21 48.21113 17.70318 9209 ft 299 kts 225°
2026-04-30 20:21 48.20205 17.59770 8584 ft 276 kts 315°
2026-04-30 20:22 48.24101 17.50554 8378 ft 275 kts 262°
2026-04-30 20:22 48.18508 17.41681 7222 ft 303 kts 196°
2026-04-30 20:22 48.12236 17.46742 5808 ft 245 kts 132°
2026-04-30 20:22 48.06961 17.54695 5242 ft 262 kts 132°
2026-04-30 20:23 48.01768 17.62627 4732 ft 266 kts 132°
2026-04-30 20:23 47.96053 17.67998 3930 ft 248 kts 199°
2026-04-30 20:23 47.92334 17.60670 3510 ft 234 kts 282°
2026-04-30 20:23 47.95606 17.54270 3242 ft 238 kts 317°
2026-04-30 20:24 47.96747 17.52512 3114 ft 235 kts 318°
2026-04-30 20:24 47.97880 17.50775 3119 ft 233 kts 318°
2026-04-30 20:24 47.99064 17.48965 3313 ft 252 kts 317°
2026-04-30 20:24 48.00296 17.47071 3283 ft 255 kts 317°
2026-04-30 20:25 48.04705 17.40273 3475 ft 162 kts 319°
2026-04-30 20:25 48.05677 17.38822 4045 ft 143 kts 321°
2026-04-30 20:26 48.07169 17.36506 3128 ft 155 kts 320°
2026-04-30 20:26 48.08599 17.34283 2535 ft 140 kts 321°
2026-04-30 20:26 48.09262 17.33258 2331 ft 135 kts 321°
2026-04-30 20:27 48.11581 17.29677 1658 ft 132 kts 320°
2026-04-30 20:27 48.13523 17.26673 1099 ft 132 kts 316°
2026-04-30 20:28 48.14795 17.24704 742 ft 131 kts 315°
2026-04-30 20:28 48.16051 17.22764 451 ft 128 kts 316°
2026-04-30 20:29 48.16951 17.21380 429 ft 45 kts 314°